• MPC Preparation (Info)

  • MPEC 2000-G05 : 2000 FK10

    The following Minor Planet Electronic Circular may be linked-to from your own Web pages, but must not otherwise be redistributed electronically.

    A form allowing access to any MPEC is at the bottom of this page.


    Read MPEC 2000-G04 Read MPEC 2000-G06


    M.P.E.C. 2000-G05                                Issued 2000 Apr. 2, 16:52 UT
    
         The Minor Planet Electronic Circulars contain information on unusual
             minor planets and routine data on comets.  They are published
       on behalf of Commission 20 of the International Astronomical Union by the
              Minor Planet Center, Smithsonian Astrophysical Observatory,
                              Cambridge, MA 02138, U.S.A.
    
                 Prepared using the Tamkin Foundation Computer Network
    
                 BMARSDEN@CFA.HARVARD.EDU or GWILLIAMS@CFA.HARVARD.EDU
              URL http://cfa-www.harvard.edu/iau/mpc.html  ISSN 1523-6714
    
                                       2000 FK10
    
    Observations:
         K00F10K* C2000 03 26.27653 11 23 20.09 +44 24 37.2          18.3        704
         K00F10K  C2000 03 26.29100 11 23 15.91 +44 24 51.4          18.1        704
         K00F10K  C2000 03 26.30541 11 23 11.50 +44 25 03.4          18.5        704
         K00F10K  C2000 03 26.31983 11 23 07.32 +44 25 16.4          18.8        704
         K00F10K  C2000 03 27.20273 11 18 54.93 +44 38 24.0          19.2        704
         K00F10K  C2000 03 27.21751 11 18 50.55 +44 38 37.2          19.2        704
         K00F10K  C2000 03 27.21841 11 18 50.29 +44 38 38.6          18.3 V      651
         K00F10K  C2000 03 27.22126 11 18 49.44 +44 38 41.2          18.2 V      651
         K00F10K  C2000 03 27.22379 11 18 48.67 +44 38 43.7          18.3 V      651
         K00F10K  C2000 03 27.23202 11 18 46.10 +44 38 50.4          19.1        704
         K00F10K  C2000 03 27.24650 11 18 41.72 +44 39 02.7          18.8        704
         K00F10K  C2000 03 30.19491 11 03 53.36 +45 14 19.7          19.3 V      854
         K00F10K  C2000 03 30.19769 11 03 52.32 +45 14 17.4          19.3 V      854
         K00F10K  C2000 03 30.20037 11 03 51.58 +45 14 21.7          19.2 V      854
         K00F10K 1C2000 03 30.20522 11 03 50.27 +45 14 17.1                      658
         K00F10K 1C2000 03 30.20876 11 03 49.23 +45 14 20.7                      658
         K00F10K 1C2000 03 30.21216 11 03 48.07 +45 14 21.4                      658
         K00F10K  C2000 03 31.85970 10 55 06.52 +45 27 56.4          17.7 R      046
         K00F10K  C2000 03 31.86122 10 55 05.91 +45 27 58.7                      046
         K00F10K  C2000 03 31.86199 10 55 05.71 +45 27 58.1                      046
         K00F10K  C2000 03 31.86280 10 55 05.33 +45 27 58.6                      046
         K00F10K  C2000 03 31.86360 10 55 05.07 +45 27 58.3          17.5 R      046
         K00F10K  C2000 04 01.83900 10 49 49.68 +45 33 47.5                      557
         K00F10K  C2000 04 01.84227 10 49 48.66 +45 33 48.5                      557
         K00F10K  C2000 04 01.85207 10 49 45.35 +45 33 51.4                      557
    
    Observer details:
    046 Klet.  Observers J. Ticha, M. Tichy.  0.57-m f/5.2 reflector + CCD.
    557 Ondrejov.  Observer P. Kusnirak.  0.65-m f/3.6 reflector + CCD.
    651 Grasslands Observatory, Tucson.  Observer J. E. McGaha.  0.62-m f/5.1
        reflector + CCD.
    658 Dominion Astrophysical Observatory.  Observer D. D. Balam.  1.82-m
        reflector + CCD.
    704 Lincoln Laboratory ETS, New Mexico.  Observers M. Blythe, F. Shelly,
        M. Bezpalko, M. Elowitz, R. Huber.  Measurers J. Stuart, H. Viggh,
        R. Sayer, J. B. Evans.  1.0-m f/2.15 reflector + CCD.
    854 Sabino Canyon Observatory, Tucson.  Observer J. E. McGaha.  0.30-m f/6.1
        Schmidt-Cassegrain + CCD.
    
    Orbital elements:
    2000 FK10
    Epoch 2000 Mar. 17.0 TT = JDT 2451620.5                 Williams
    M 299.62387              (2000.0)            P               Q
    n   0.62568295     Peri.  246.77444     +0.30320396     +0.93930493
    a   1.3538374      Node    41.95980     -0.76275957     +0.34021204
    e   0.4789750      Incl.   13.89320     -0.57119629     +0.04429473
    P   1.58           H   18.9           G   0.15
    From 25 observations 2000 Mar. 26-Apr. 1.
    
    Ephemeris:
    2000 FK10                a,e,i = 1.35, 0.48, 14                  q = 0.7054
    Date    TT    R. A. (2000) Decl.     Delta      r     Elong.  Phase     V
    2000 03 27    11 19.89   +44 35.4    0.351    1.255   130.6    37.1    18.6
    2000 04 01    10 54.35   +45 28.9    0.330    1.217   124.4    42.6    18.6
    2000 04 06    10 26.65   +45 39.2    0.312    1.178   117.5    48.9    18.6
    2000 04 11    09 58.00   +45 01.8    0.296    1.139   110.1    55.7    18.6
    2000 04 16    09 29.43   +43 36.7    0.282    1.099   102.3    63.2    18.6
    2000 04 21    09 01.53   +41 25.9    0.270    1.059    94.0    71.3    18.7
    2000 04 26    08 34.36   +38 32.2    0.258    1.018    85.3    80.1    18.8
    2000 05 01    08 07.56   +34 57.9    0.248    0.978    76.1    89.7    19.0
    2000 05 06    07 40.54   +30 44.7    0.239    0.938    66.3   100.3    19.3
    2000 05 11    07 12.62   +25 55.5    0.233    0.900    55.8   111.9    19.8
    2000 05 16    06 43.44   +20 38.0    0.231    0.863    44.8   124.3    20.6
    
    Gareth V. Williams           (C) Copyright 2000 MPC           M.P.E.C. 2000-G05
    

    Read MPEC 2000-G04 Read MPEC 2000-G06


    MPEC number:

    Enter an MPEC number in one of the following forms:

    • 1997-B01 (the full form)
    • J97B01 (the packed version of the full form)
    • B01 (the abbreviated form)